EW4645 Weather Reports


Display with metric or nautical units.
time (UTC)temp
F
wind
direction
speed
MPH
gust
MPH
rain 1hr
in
rain 24hr
in
rain mn
in
humidity
%
barometer
mb
20180722110006 70 108 7.0 9.0 0.00 0.00 0.00 74 1016.7
20180722104503 69 88 5.0 12.0 0.00 0.00 0.00 74 1016.8
20180722103007 69 92 4.0 10.0 0.00 0.00 0.00 75 1016.8
20180722101503 70 89 5.0 10.0 0.00 0.00 0.00 74 1016.9
20180722100007 69 103 5.0 10.0 0.00 0.00 0.00 75 1016.9
20180722094504 68 106 6.0 10.0 0.00 0.00 0.00 77 1016.8
20180722093008 67 78 4.0 9.0 0.00 0.00 0.00 79 1017.0
20180722091503 67 85 4.0 8.0 0.00 0.00 0.00 79 1017.0
20180722090006 67 106 4.0 9.0 0.00 0.00 0.00 80 1017.0
20180722084503 65 85 4.0 9.0 0.00 0.00 0.00 81 1017.0
20180722083007 69 218 0.0 5.0 0.00 0.00 0.00 78 1017.0
20180722081503 68 77 1.0 4.0 0.00 0.00 0.00 78 1016.9
20180722080007 67 245 1.0 5.0 0.00 0.00 0.00 81 1016.8
20180722074504 66 207 1.0 4.0 0.00 0.00 0.00 82 1016.9
20180722073007 65 140 1.0 3.0 0.00 0.00 0.00 84 1016.8
20180722071504 64 96 0.0 2.0 0.00 0.00 0.00 85 1016.9
20180722070007 63 90 1.0 5.0 0.00 0.00 0.00 85 1016.9
20180722064504 64 111 1.0 5.0 0.00 0.00 0.00 84 1016.7
20180722063007 64 243 1.0 4.0 0.00 0.00 0.00 85 1016.7
20180722061504 63 295 0.0 2.0 0.00 0.00 0.00 86 1016.6
20180722060007 63 319 0.0 2.0 0.00 0.00 0.00 86 1016.6
20180722054504 62 280 2.0 5.0 0.00 0.00 0.00 86 1016.5
20180722053007 62 279 2.0 6.0 0.00 0.00 0.00 86 1016.4
20180722051504 62 253 0.0 4.0 0.00 0.00 0.00 87 1016.4
20180722050007 62 297 1.0 3.0 0.00 0.00 0.00 87 1016.4
20180722044504 62 257 1.0 5.0 0.00 0.00 0.00 87 1016.4
20180722043007 61 269 1.0 4.0 0.00 0.00 0.00 87 1016.2
20180722041503 61 249 3.0 7.0 0.00 0.00 0.00 87 1016.1
20180722040007 61 234 6.0 9.0 0.00 0.00 0.00 87 1016.1
20180722034504 61 236 7.0 13.0 0.00 0.00 0.00 86 1016.0
20180722033007 61 238 8.0 16.0 0.00 0.00 0.00 86 1015.9
20180722031504 61 241 5.0 13.0 0.00 0.00 0.00 85 1015.9
20180722030007 61 245 3.0 9.0 0.00 0.00 0.00 85 1015.9
20180722024504 61 228 1.0 6.0 0.00 0.00 0.00 84 1016.1
20180722023007 62 254 2.0 7.0 0.00 0.00 0.00 84 1016.1
20180722021504 62 231 4.0 11.0 0.00 0.00 0.00 83 1016.1
20180722020008 62 246 5.0 11.0 0.00 0.00 0.00 82 1016.2
20180722014504 62 234 4.0 14.0 0.00 0.00 0.00 82 1016.3
20180722013008 62 247 4.0 13.0 0.00 0.00 0.00 81 1016.5
20180722011503 62 262 6.0 12.0 0.00 0.00 0.00 81 1016.6
20180722010008 62 257 6.0 14.0 0.00 0.00 0.00 79 1016.6
20180722004504 63 264 7.0 13.0 0.00 0.00 0.00 78 1016.5
20180722003008 63 255 6.0 13.0 0.00 0.00 0.00 78 1016.5
20180722001504 63 257 4.0 10.0 0.00 0.00 0.00 76 1016.6
20180722000007 64 274 5.0 8.0 0.00 0.00 0.00 74 1016.6
20180721234504 65 267 5.0 10.0 0.00 0.00 0.00 73 1016.7
20180721233007 65 256 4.0 10.0 0.00 0.00 0.00 71 1016.5
20180721231504 65 240 7.0 14.0 0.00 0.00 0.00 70 1016.5
20180721230008 65 240 3.0 11.0 0.00 0.00 0.00 69 1016.4
20180721224504 65 271 2.0 6.0 0.00 0.00 0.00 68 1016.4
20180721223007 65 230 4.0 6.0 0.00 0.00 0.00 69 1016.6
20180721221504 65 234 3.0 7.0 0.00 0.00 0.00 72 1016.6
20180721220007 64 225 2.0 6.0 0.00 0.00 0.00 77 1016.5
20180721214504 64 188 3.0 5.0 0.00 0.00 0.00 78 1016.6
20180721213007 64 186 4.0 7.0 0.00 0.00 0.00 80 1016.6
20180721211504 65 176 3.0 8.0 0.00 0.00 0.00 80 1016.5
20180721210007 65 171 3.0 11.0 0.00 0.00 0.00 80 1016.5
20180721204504 65 156 2.0 9.0 0.00 0.00 0.00 80 1016.4
20180721203007 65 160 2.0 10.0 0.00 0.00 0.00 79 1016.2
20180721201504 65 145 2.0 7.0 0.00 0.00 0.00 79 1016.1
20180721200007 66 171 2.0 9.0 0.00 0.00 0.00 78 1016.1
20180721194504 66 150 2.0 8.0 0.00 0.00 0.00 78 1016.0
20180721193007 66 162 2.0 8.0 0.00 0.00 0.00 77 1015.9
20180721191504 67 160 2.0 10.0 0.00 0.00 0.00 75 1015.8
20180721190008 67 174 3.0 11.0 0.00 0.00 0.00 74 1015.8
20180721184505 68 142 3.0 11.0 0.00 0.00 0.00 72 1015.9
20180721183008 68 171 3.0 9.0 0.00 0.00 0.00 72 1015.8
20180721181504 68 157 2.0 11.0 0.00 0.00 0.00 71 1015.8
20180721180008 69 143 3.0 9.0 0.00 0.00 0.00 71 1015.7
20180721174419 69 148 3.0 10.0 0.00 0.00 0.00 69 1015.7
20180721172923 70 160 3.0 9.0 0.00 0.00 0.00 67 1015.7
20180721171420 71 173 2.0 9.0 0.00 0.00 0.00 64 1015.6
20180721165923 71 132 2.0 9.0 0.00 0.00 0.00 64 1015.6
20180721164420 71 142 2.0 9.0 0.00 0.00 0.00 66 1015.7
20180721162923 72 136 2.0 7.0 0.00 0.00 0.00 63 1015.7
20180721161419 71 146 2.0 6.0 0.00 0.00 0.00 63 1015.8
20180721155924 71 151 2.0 7.0 0.00 0.00 0.00 65 1016.0
20180721154420 69 140 3.0 9.0 0.00 0.00 0.00 67 1016.0
20180721152924 69 97 4.0 8.0 0.00 0.00 0.00 68 1016.0
20180721151420 66 77 8.0 12.0 0.00 0.00 0.00 75 1016.0
20180721145923 68 85 8.0 11.0 0.00 0.00 0.00 73 1016.0
20180721144419 67 81 7.0 15.0 0.00 0.00 0.00 74 1016.1
20180721142924 65 62 7.0 12.0 0.00 0.00 0.00 76 1016.1
20180721141419 66 73 5.0 14.0 0.00 0.00 0.00 73 1016.0
20180721135923 66 67 7.0 13.0 0.00 0.00 0.00 74 1016.2
20180721134420 68 67 4.0 9.0 0.00 0.00 0.00 69 1016.0
20180721132923 69 73 4.0 10.0 0.00 0.00 0.00 69 1015.9
20180721131420 67 100 6.0 12.0 0.00 0.00 0.00 68 1016.0
20180721125923 67 67 5.0 13.0 0.00 0.00 0.00 70 1016.1
20180721124420 70 71 1.0 5.0 0.00 0.00 0.00 62 1016.2
20180721122924 72 252 1.0 7.0 0.00 0.00 0.00 56 1016.2
20180721121420 72 247 5.0 11.0 0.00 0.00 0.00 54 1016.2
20180721115924 72 246 4.0 12.0 0.00 0.00 0.00 55 1016.3
20180721114420 69 291 4.0 10.0 0.00 0.00 0.00 59 1016.3
20180721112923 68 270 4.0 9.0 0.00 0.00 0.00 61 1016.4
20180721111420 69 258 4.0 10.0 0.00 0.00 0.00 60 1016.4